Flag for United Kingdom Weather past 2 weeks in Exeter, England, United Kingdom

Now
39 °F

Scattered showers. Passing clouds.


Feels Like: 29 °F
Forecast: 31 / 43 °F
Wind: 22 mph from Northwest

Location: Exeter Airport

Current Time: Feb 1, 2015 at 10:40:14 AM

Latest Report: Feb 1, 2015 at 10:20 AM


Visibility: N/A

Pressure: 29.65 "Hg

Humidity: 81%

Dew point: 34 °F

Location of ExeterLocation

Historic Weather in Exeter — Graph

°F

Exeter temperature yesterday

Maximum temperature yesterday: 45 °F (at 11:50 AM)
Minimum temperature yesterday: 36 °F (at 12:20 AM)
Average temperature yesterday: 39 °F

Past Weeks' High & Low Weather Summary

 TemperatureHumidityPressure
High52 °F (Jan 28, 7:20 AM)100% (Jan 18, 7:20 AM)30.54 "Hg (Jan 18, 7:20 AM)
Low23 °F (Jan 23, 5:50 AM)53% (Jan 19, 2:50 PM)28.97 "Hg (Jan 29, 3:20 PM)
Average40 °F83%29.86 "Hg
* Reported Jan 17 9:20 AM — Feb 1 9:20 AM, Exeter, Weather by CustomWeather, © 2014

Note: Actual official high and low records may vary slightly from our data, if they occured in-between our weather recording intervals... More about our weather records

Advertising

Exeter weather history for previous 24 hours

 ConditionsComfort  
Time TempWeatherWind HumidityBarometerVisibility
9:20 AM
Feb 1
37 °FSnow flurries. Passing clouds.20 mph81%29.62 "HgN/A
8:50 AM37 °FPassing clouds.17 mph75%29.62 "HgN/A
8:20 AM37 °FPassing clouds.18 mph75%29.62 "HgN/A
7:50 AM37 °FPassing clouds.24 mph75%29.59 "HgN/A
11:20 PM
Jan 31
37 °FPassing clouds.21 mph70%29.50 "HgN/A
10:50 PM37 °FPassing clouds.15 mph75%29.50 "HgN/A
10:20 PM39 °FPassing clouds.17 mph65%29.50 "HgN/A
9:50 PM37 °FPassing clouds.16 mph75%29.50 "HgN/A
9:20 PM37 °FPassing clouds.13 mph75%29.50 "HgN/A
8:50 PM37 °FSprinkles. Passing clouds.16 mph75%29.47 "HgN/A
8:20 PM37 °FPassing clouds.12 mph75%29.47 "HgN/A
7:50 PM37 °FPassing clouds.21 mph75%29.47 "HgN/A
7:20 PM39 °FPassing clouds.24 mph75%29.45 "HgN/A
6:50 PM39 °FPassing clouds.17 mph75%29.45 "HgN/A
6:20 PM39 °FPassing clouds.16 mph81%29.42 "HgN/A
5:50 PM37 °FPassing clouds.12 mph87%29.42 "HgN/A
5:20 PM39 °FPassing clouds.15 mph81%29.39 "HgN/A
4:50 PM39 °FScattered clouds.15 mph81%29.36 "HgN/A
4:20 PM39 °FScattered clouds.14 mph81%29.36 "HgN/A
3:50 PM39 °FScattered clouds.12 mph87%29.33 "HgN/A
3:20 PM39 °FPartly sunny.22 mph81%29.30 "HgN/A
2:50 PM43 °FSprinkles. Broken clouds.16 mph76%29.30 "HgN/A
1:50 PM43 °FScattered clouds.17 mph71%29.24 "HgN/A
1:20 PM43 °FPartly sunny.14 mph76%29.24 "HgN/A
12:50 PM45 °FScattered clouds.17 mph71%29.24 "HgN/A
12:20 PM45 °FScattered clouds.15 mph76%29.21 "HgN/A
11:50 AM45 °FScattered clouds.17 mph76%29.18 "HgN/A
11:20 AM43 °FScattered clouds.20 mph81%29.18 "HgN/A
10:50 AM43 °FScattered clouds.20 mph81%29.15 "HgN/A
10:20 AM41 °FScattered clouds.17 mph87%29.15 "HgN/A
Weather by CustomWeather, © 2014

See weather overviewHow to use our weather pages